GCOM-W1 (SHIZUKU)

Last updated on Mon Oct 20 2025 00:03:35 GMT+0000 (Coordinated Universal Time)

1 38337U 12025A 25292.28846524 .00001446 00000+0 33131-3 0 9991 2 38337 98.2123 231.2305 0001639 90.3582 30.9567 14.57073620713953
UTC large
Height (km)
Speed (km/s)
/
Latitude / Longitude
Inclination (degrees)
Orbital Period (minutes)
Azimuth
Elevation
Range (km)
Doppler Factor

Next 0 passes for location: London (51.5072 / 0.1276)

Sorry there are no passes over London.